Location: Unspecified
(0.0000°N, 0.0000°E)
Time: 16:40:45
(UTC+02:00)

Vanguard 1 - Visible Passes

Search period start: 22 June 2018 00:00
Search period end: 02 July 2018 00:00
Orbit: 650 x 3833 km, 34.3° (Epoch: 21 June)

Date Brightness Start Highest point End Pass type
(mag) Time Alt. Az. Time Alt. Az. Time Alt. Az.
22 Jun 11.2 05:19:12 39° N 05:19:12 39° N 05:26:03 10° NE visible
22 Jun 12.7 07:37:04 10° NW 07:42:07 15° NNW 07:48:47 10° NNE visible
23 Jun 11.5 05:39:04 28° NNW 05:39:16 28° NNW 05:46:46 10° NNE visible
24 Jun 11.9 05:58:55 17° NW 06:00:57 19° NNW 06:07:09 10° NNE visible
25 Jun 12.8 04:06:02 12° NE 04:06:02 12° NE 04:06:32 10° NE visible
25 Jun 12.3 06:19:30 10° NW 06:22:52 13° NNW 06:27:02 10° NNE visible
26 Jun 12.5 04:25:51 15° NNE 04:25:51 15° NNE 04:27:16 10° NNE visible
27 Jun 12.4 04:45:39 15° N 04:45:39 15° N 04:47:34 10° NNE visible
28 Jun 12.4 05:05:27 12° N 05:05:27 12° N 05:07:07 10° N visible
